1516690800.49,9419,3.25,72752.3,-12.19,-21.27,-21.43,0,*5C
1516690801.7,9420,3.25,72754.3,-12.21,-21.39,-21.43,0,*52
1516690802.93,9421,3.25,72756.3,-12.19,-21.39,-21.43,0,*58
1516690804.16,9422,3.25,72758.3,-12.21,-21.27,-21.43,0,*5F
1516690805.39,9423,3.25,72756.0,-12.21,-21.43,-21.53,0,*5D
1516690806.59,9424,3.25,72754.3,-12.21,-21.39,-21.43,0,*56
1516690807.85,9425,3.25,72756.0,-12.21,-21.27,-21.57,0,*5D
1516690809.11,9426,3.25,72758.5,-12.21,-21.53,-21.67,0,*5E
1516690810.4,9427,3.25,72756.0,-12.19,-21.53,-21.67,0,*54
1516690811.64,9428,3.31,72758.8,-12.21,-21.43,-21.67,0,*51
1516690812.84,9429,3.25,72754.3,-12.21,-21.43,-21.73,0,*55
1516690814.1,9430,3.25,72754.8,-12.19,-21.57,-21.93,0,*5D
1516690815.39,9431,3.25,72758.5,-12.19,-21.53,-21.87,0,*5D
1516690816.65,9432,3.25,72758.8,-12.19,-21.57,-21.93,0,*5F
1516690817.89,9433,3.25,72756.0,-12.21,-21.53,-22.03,0,*5B
1516690819.15,9434,3.25,72754.8,-12.19,-21.57,-22.03,0,*53
1516690820.41,9435,3.25,72756.0,-12.19,-21.53,-21.93,0,*5C
1516690821.67,9436,3.25,72756.5,-12.21,-21.67,-22.21,0,*59
1516690822.94,9437,3.25,72752.5,-12.19,-21.53,-22.07,0,*50
1516690824.15,9438,3.25,72752.5,-12.17,-21.47,-22.03,0,*50
1516690825.38,9439,3.25,72752.5,-12.17,-21.63,-22.17,0,*52
1516690826.62,9440,3.25,72752.5,-12.17,-21.47,-22.17,0,*5A
1516690827.88,9441,3.25,72756.0,-12.19,-21.43,-22.17,0,*51
1516690829.13,9442,3.25,72752.5,-12.19,-21.43,-22.21,0,*57
1516690830.39,9443,3.25,72752.3,-12.19,-21.43,-22.17,0,*53
1516690831.65,9444,3.25,72752.8,-12.19,-21.39,-22.21,0,*5C
1516690832.9,9445,3.25,72754.3,-12.19,-21.43,-22.21,0,*50
1516690834.11,9446,3.25,72752.8,-12.17,-21.39,-22.27,0,*56
1516690835.31,9447,3.25,72754.5,-12.17,-21.63,-22.41,0,*58
1516690836.51,9448,3.31,72758.5,-12.17,-21.39,-22.41,0,*58
1516690837.74,9449,3.25,72752.0,-12.17,-21.39,-22.31,0,*5E
1516690838.97,9450,3.25,72754.3,-12.17,-21.33,-22.27,0,*5B
1516690840.18,9451,3.25,72752.8,-12.13,-21.13,-22.27,0,*5C
1516690841.44,9452,3.25,72752.8,-12.17,-21.23,-22.31,0,*5F
1516690842.67,9453,3.25,72750.3,-12.13,-21.27,-22.41,0,*59
1516690843.91,9454,3.25,72752.0,-12.17,-21.23,-22.63,0,*5E
1516690845.14,9455,3.25,72752.3,-12.17,-21.47,-22.77,0,*58
1516690846.37,9456,3.25,72752.8,-12.13,-21.43,-22.73,0,*5F
1516690847.58,9457,3.25,72750.8,-12.17,-21.17,-22.57,0,*5D
1516690848.81,9458,3.25,72752.0,-12.13,-21.27,-22.63,0,*52
1516690850.05,9459,3.25,72750.8,-12.13,-21.27,-22.87,0,*59
1516690851.26,9460,3.25,72750.5,-12.13,-21.39,-23.09,0,*5B
1516690852.46,9461,3.25,72750.0,-12.13,-21.17,-22.87,0,*51
1516690853.68,9462,3.25,72750.3,-12.13,-21.17,-22.97,0,*53
1516690854.91,9463,3.31,72754.3,-12.13,-21.33,-23.09,0,*52
1516690856.14,9464,3.25,72752.3,-12.17,-21.27,-23.13,0,*5F
1516690857.35,9465,3.25,72754.5,-12.17,-21.17,-23.13,0,*5D
1516690858.59,9466,3.25,72754.5,-12.13,-21.17,-23.19,0,*50
1516690859.82,9467,3.25,72754.5,-12.13,-21.13,-23.19,0,*55
1516690861.05,9468,3.25,72752.8,-12.13,-21.17,-23.33,0,*56
1516690862.31,9469,3.25,72750.5,-12.13,-21.33,-23.49,0,*5C
1516690863.54,9470,3.31,72754.5,-12.13,-21.43,-23.49,0,*53
1516690864.77,9471,3.25,72750.8,-12.17,-21.63,-23.69,0,*56
1516690865.99,9472,3.25,72752.0,-12.13,-21.63,-23.65,0,*5D
1516690867.2,9473,3.25,72754.0,-12.09,-21.47,-23.75,0,*50
1516690868.46,9474,3.25,72752.5,-12.11,-21.47,-23.85,0,*51
1516690869.74,9475,3.31,72756.8,-12.11,-21.57,-23.85,0,*51
1516690871.0,9476,3.31,72756.0,-12.11,-21.67,-23.89,0,*5D
1516690872.26,9477,3.25,72754.5,-12.11,-21.83,-24.05,0,*55
1516690873.51,9478,3.25,72752.0,-12.13,-21.83,-23.99,0,*5A
1516690874.72,9479,3.25,72754.0,-12.13,-21.93,-24.05,0,*58
1516690875.93,9480,3.25,72752.8,-12.13,-21.93,-24.05,0,*5E
1516690877.18,9481,3.25,72752.5,-12.13,-21.97,-24.15,0,*5A
1516690878.41,9482,3.31,72758.3,-12.17,-22.03,-24.21,0,*54
1516690879.67,9483,3.25,72758.5,-12.11,-21.97,-24.05,0,*5B
1516690880.89,9484,3.25,72758.3,-12.11,-22.07,-24.05,0,*56
1516690882.13,9485,3.31,72762.5,-12.11,-22.11,-24.05,0,*50
1516690883.36,9486,3.31,72758.0,-12.11,-22.27,-24.05,0,*56
1516690884.62,9487,3.25,72756.3,-12.11,-22.37,-24.21,0,*50
1516690885.88,9488,3.25,72760.0,-12.11,-22.37,-23.99,0,*5B
1516690887.11,9489,3.25,72758.3,-12.11,-22.27,-23.89,0,*5A
1516690888.36,9490,3.31,72756.5,-12.11,-22.37,-23.99,0,*52
1516690889.57,9491,3.31,72756.0,-12.09,-22.53,-24.05,0,*5A
1516690890.83,9492,3.25,72760.5,-12.11,-22.53,-23.99,0,*52
1516690892.03,9493,3.25,72758.5,-12.09,-22.41,-23.89,0,*58
1516690893.25,9494,3.31,72758.5,-12.11,-22.63,-23.89,0,*56
1516690894.51,9495,3.25,72756.0,-12.11,-22.73,-23.89,0,*56
1516690895.78,9496,3.25,72752.5,-12.11,-22.73,-23.99,0,*54
1516690897.04,9497,3.25,72758.0,-12.11,-22.63,-23.85,0,*59
1516690898.25,9498,3.25,72756.3,-12.09,-22.57,-23.75,0,*57
1516690899.51,9499,3.25,72756.0,-12.11,-22.73,-23.75,0,*59
1516690900.73,9500,3.25,72756.0,-12.09,-22.63,-23.53,0,*54
1516690901.93,9501,3.25,72756.8,-12.09,-22.87,-23.75,0,*5B
1516690903.18,9502,3.31,72762.0,-12.09,-22.77,-23.65,0,*56
1516690904.39,9503,3.25,72756.5,-12.09,-22.87,-23.75,0,*59
1516690905.61,9504,3.25,72758.8,-12.09,-22.87,-23.65,0,*5F
1516690906.86,9505,3.25,72760.0,-12.11,-22.93,-23.65,0,*52
1516690908.12,9506,3.25,72756.3,-12.07,-22.87,-23.69,0,*5F
1516690909.35,9507,3.25,72756.0,-12.11,-23.09,-23.75,0,*53
1516690910.59,9508,3.31,72762.5,-12.09,-23.19,-23.75,0,*54
1516690911.82,9509,3.31,72758.5,-12.09,-22.93,-23.49,0,*59
1516690913.05,9510,3.25,72758.5,-12.09,-22.93,-23.49,0,*51
1516690914.28,9511,3.25,72758.8,-12.09,-22.93,-23.33,0,*5D
1516690915.54,9512,3.25,72760.3,-12.09,-23.03,-23.49,0,*5B
1516690916.76,9513,3.25,72762.3,-12.09,-23.19,-23.39,0,*56
1516690918.02,9514,3.31,72760.8,-12.07,-23.13,-23.33,0,*5F
1516690919.25,9515,3.31,72758.8,-12.09,-23.23,-23.39,0,*59
1516690920.49,9516,3.25,72756.3,-12.09,-23.09,-23.23,0,*59
1516690921.77,9517,3.25,72758.8,-12.07,-23.19,-23.29,0,*5D
1516690923.05,9518,3.25,72754.5,-12.07,-23.29,-23.19,0,*52
1516690924.32,9519,3.25,72758.3,-12.07,-23.13,-23.03,0,*51
1516690925.6,9520,3.25,72756.5,-12.07,-23.03,-23.03,0,*5A
1516690926.84,9521,3.25,72760.8,-12.07,-23.13,-22.87,0,*57
1516690928.1,9522,3.31,72762.3,-12.07,-23.29,-22.97,0,*5C
1516690929.39,9523,3.25,72758.3,-12.07,-23.33,-23.03,0,*5A
1516690930.62,9524,3.25,72758.0,-12.05,-23.19,-22.87,0,*5A
1516690931.86,9525,3.25,72756.5,-12.07,-23.13,-22.83,0,*57
1516690933.14,9526,3.31,72756.5,-12.07,-23.03,-22.73,0,*5A
1516690934.35,9527,3.31,72758.0,-12.05,-22.97,-22.57,0,*53
1516690935.59,9528,3.31,72758.0,-12.05,-23.03,-22.67,0,*53
1516690936.82,9529,3.25,72756.3,-12.05,-23.03,-22.67,0,*52
1516690938.06,9530,3.31,72760.8,-12.07,-22.97,-22.57,0,*57
1516690939.27,9531,3.31,72762.5,-12.05,-22.87,-22.57,0,*55
1516690940.48,9532,3.31,72762.5,-12.05,-22.87,-22.57,0,*56
1516690941.71,9533,3.25,72756.5,-12.07,-22.83,-22.57,0,*51
1516690942.95,9534,3.31,72760.3,-12.05,-22.83,-22.47,0,*55
1516690944.18,9535,3.25,72756.5,-12.05,-22.73,-22.37,0,*5C
1516690945.39,9536,3.31,72762.3,-12.05,-22.67,-22.37,0,*5A
1516690946.63,9537,3.25,72756.0,-12.05,-22.53,-22.31,0,*5A
1516690947.89,9538,3.25,72758.3,-12.05,-22.47,-22.21,0,*51
1516690949.13,9539,3.25,72758.5,-12.05,-22.47,-22.37,0,*57
1516690950.39,9540,3.25,72756.5,-12.07,-22.47,-22.37,0,*5B
1516690951.63,9541,3.31,72756.0,-12.05,-22.37,-22.31,0,*59
1516690952.87,9542,3.25,72754.0,-12.01,-22.27,-22.27,0,*58
1516690954.13,9543,3.25,72752.0,-12.01,-22.17,-22.27,0,*5A
1516690955.4,9544,3.25,72754.0,-12.05,-22.21,-22.31,0,*5B
1516690956.67,9545,3.31,72756.8,-12.05,-22.17,-22.31,0,*5F
1516690957.93,9546,3.25,72754.5,-12.05,-22.31,-22.47,0,*59
1516690959.2,9547,3.25,72758.0,-12.05,-22.17,-22.31,0,*5D
1516690960.46,9548,3.31,72756.0,-12.05,-22.21,-22.31,0,*57
1516690961.76,9549,3.31,72758.8,-12.01,-22.17,-22.31,0,*57
1516690962.97,9550,3.31,72756.5,-11.99,-22.11,-22.27,0,*5C
1516690964.18,9551,3.31,72758.0,-11.99,-22.03,-22.11,0,*5B
1516690965.41,9552,3.25,72754.0,-12.01,-22.03,-22.11,0,*5A
1516690966.68,9553,3.31,72762.8,-11.99,-22.17,-22.31,0,*5E
1516690967.91,9554,3.31,72760.3,-12.01,-22.11,-22.11,0,*5F
1516690969.15,9555,3.25,72760.0,-12.01,-22.11,-22.11,0,*5E
1516690970.39,9556,3.31,72758.8,-11.99,-22.17,-22.11,0,*59
1516690971.6,9557,3.31,72760.0,-11.99,-22.03,-22.03,0,*5E
1516690972.88,9558,3.31,72764.8,-12.01,-21.97,-21.97,0,*53
1516690974.14,9559,3.31,72764.3,-12.01,-22.03,-21.97,0,*5C
1516690975.4,9560,3.31,72760.0,-11.99,-21.97,-21.87,0,*5B
1516690976.64,9561,3.31,72760.5,-11.99,-22.11,-21.87,0,*57
1516690977.88,9562,3.31,72758.5,-11.99,-22.03,-21.87,0,*57
1516690979.1,9563,3.31,72758.0,-11.99,-21.97,-21.73,0,*53
1516690980.34,9564,3.31,72758.0,-11.99,-22.03,-21.83,0,*55
1516690981.57,9565,3.31,72758.5,-11.99,-22.11,-21.83,0,*57
1516690982.81,9566,3.31,72758.0,-11.99,-21.97,-21.47,0,*51
1516690984.04,9567,3.31,72762.8,-11.99,-22.11,-21.67,0,*5F
1516690985.26,9568,3.25,72758.5,-11.99,-21.93,-21.47,0,*5B
1516690986.52,9569,3.25,72758.8,-11.99,-21.83,-21.33,0,*58
1516690987.78,9570,3.31,72762.3,-11.99,-21.83,-21.33,0,*50
1516690989.04,9571,3.25,72758.5,-11.97,-21.83,-21.17,0,*59
1516690990.31,9572,3.31,72760.0,-11.99,-21.67,-21.03,0,*5B
1516690991.57,9573,3.31,72760.3,-11.97,-21.77,-21.03,0,*55
1516690992.81,9574,3.25,72758.8,-11.99,-21.77,-21.03,0,*5C
1516690994.08,9575,3.31,72762.5,-11.99,-21.53,-20.99,0,*59
1516690995.36,9576,3.25,72760.5,-11.97,-21.67,-20.89,0,*52
1516690996.63,9577,3.31,72764.8,-11.99,-21.53,-20.83,0,*50
1516690997.84,9578,3.25,72760.8,-11.99,-21.43,-20.73,0,*51
1516690999.05,9579,3.31,72762.3,-11.99,-21.43,-20.73,0,*50
1516691000.28,9580,3.31,72764.8,-11.99,-21.43,-20.83,0,*59
1516691001.52,9581,3.31,72762.5,-11.99,-21.33,-20.69,0,*5B
1516691002.76,9582,3.25,72762.5,-11.97,-21.17,-20.59,0,*53
1516691004.03,9583,3.31,72764.5,-11.97,-21.33,-20.73,0,*5C
1516691005.27,9584,3.25,72758.8,-11.97,-21.17,-20.73,0,*5D
1516691006.54,9585,3.25,72758.0,-11.97,-20.89,-20.49,0,*53
1516691007.81,9586,3.25,72758.3,-11.97,-20.89,-20.49,0,*50
1516691009.06,9587,3.31,72764.8,-11.97,-20.89,-20.39,0,*56
1516691010.35,9588,3.25,72760.3,-11.97,-20.83,-20.49,0,*54
1516691011.62,9589,3.31,72764.8,-11.97,-20.89,-20.49,0,*5F
1516691012.87,9590,3.31,72762.5,-11.95,-20.73,-20.53,0,*5B
1516691014.08,9591,3.31,72758.5,-11.95,-20.69,-20.43,0,*50
1516691015.35,9592,3.25,72758.5,-11.95,-20.53,-20.35,0,*5B
1516691016.56,9593,3.31,72762.3,-11.95,-20.43,-20.29,0,*56
1516691017.81,9594,3.31,72762.5,-11.95,-20.43,-20.35,0,*5C
1516691019.03,9595,3.25,72756.8,-11.91,-20.43,-20.29,0,*54
1516691020.23,9596,3.31,72766.8,-11.95,-20.29,-20.29,0,*5F
1516691021.47,9597,3.31,72760.3,-11.91,-20.43,-20.35,0,*5B
1516691022.72,9598,3.25,72760.3,-11.95,-20.43,-20.49,0,*5B
1516691023.95,9599,3.31,72760.3,-11.95,-20.29,-20.35,0,*5D
1516691025.19,9600,3.31,72760.5,-11.91,-20.15,-20.29,0,*58
1516691026.45,9601,3.31,72762.3,-11.91,-20.19,-20.49,0,*53
1516691027.69,9602,3.25,72758.8,-11.91,-20.19,-20.43,0,*5A
1516691028.93,9603,3.31,72760.8,-11.95,-19.99,-20.35,0,*5C
1516691030.17,9604,3.31,72762.0,-11.91,-19.99,-20.35,0,*5F
1516691031.41,9605,3.31,72762.5,-11.95,-19.99,-20.35,0,*5A
1516691032.64,9606,3.25,72756.0,-11.91,-20.15,-20.69,0,*5A
1516691033.88,9607,3.31,72758.8,-11.91,-20.19,-20.63,0,*5D
1516691035.12,9608,3.31,72760.0,-11.91,-20.15,-20.63,0,*5E
1516691036.33,9609,3.31,72760.3,-11.91,-20.05,-20.63,0,*5E
1516691037.58,9610,3.31,72764.0,-11.91,-19.99,-20.53,0,*5A
1516691038.78,9611,3.31,72760.0,-11.91,-20.05,-20.69,0,*5D
1516691040.02,9612,3.31,72762.5,-11.89,-20.09,-20.73,0,*50
1516691041.26,9613,3.31,72762.0,-11.89,-19.99,-20.63,0,*53
1516691042.5,9614,3.31,72760.5,-11.91,-20.19,-20.93,0,*50
1516691043.76,9615,3.31,72760.3,-11.89,-19.99,-20.79,0,*5E
1516691045.02,9616,3.31,72762.8,-11.89,-19.99,-20.79,0,*5D
1516691046.27,9617,3.31,72760.5,-11.87,-20.15,-20.89,0,*53
1516691047.5,9618,3.31,72762.3,-11.89,-20.29,-20.93,0,*56
1516691048.73,9619,3.31,72764.0,-11.89,-20.25,-20.93,0,*5B
1516691050.0,9620,3.31,72760.8,-11.85,-20.19,-20.89,0,*59
1516691051.27,9621,3.31,72762.0,-11.89,-20.43,-21.03,0,*58
1516691052.52,9622,3.31,72762.0,-11.87,-20.59,-21.23,0,*5C
1516691053.79,9623,3.31,72760.3,-11.89,-20.59,-21.33,0,*52
1516691055.04,9624,3.31,72760.0,-11.87,-20.59,-21.23,0,*5A
1516691056.29,9625,3.31,72760.8,-11.87,-20.49,-21.17,0,*5D
1516691057.54,9626,3.31,72762.5,-11.87,-20.63,-21.23,0,*51
1516691058.75,9627,3.25,72758.5,-11.87,-20.73,-21.39,0,*5A
1516691060.01,9628,3.31,72762.8,-11.89,-20.89,-21.57,0,*56
1516691061.27,9629,3.31,72764.3,-11.87,-21.03,-21.57,0,*5A
1516691062.53,9630,3.31,72760.8,-11.85,-21.13,-21.53,0,*55
1516691063.77,9631,3.31,72764.8,-11.83,-21.03,-21.63,0,*50
1516691065.01,9632,3.31,72760.5,-11.85,-21.13,-21.63,0,*54
1516691066.29,9633,3.31,72764.3,-11.85,-21.03,-21.53,0,*57
1516691067.56,9634,3.31,72766.0,-11.83,-21.27,-21.67,0,*57
1516691068.8,9635,3.31,72764.0,-11.85,-21.17,-21.63,0,*57
1516691070.09,9636,3.31,72766.8,-11.85,-21.27,-21.67,0,*53
1516691071.38,9637,3.31,72766.5,-11.85,-21.27,-21.67,0,*52
1516691072.64,9638,3.31,72764.0,-11.85,-21.47,-21.83,0,*51
1516691073.91,9639,3.25,72758.0,-11.85,-21.53,-21.93,0,*54
1516691075.15,9640,3.31,72760.0,-11.85,-21.47,-21.93,0,*5F
1516691076.38,9641,3.25,72760.0,-11.85,-21.39,-21.77,0,*5D
1516691077.67,9642,3.31,72766.3,-11.85,-21.33,-21.67,0,*55
1516691078.89,9643,3.31,72766.5,-11.83,-21.47,-21.77,0,*50
1516691080.1,9644,3.31,72768.3,-11.83,-21.47,-21.77,0,*57
1516691081.37,9645,3.31,72760.0,-11.85,-21.53,-21.77,0,*55
1516691082.61,9646,3.31,72762.3,-11.83,-21.63,-21.67,0,*52
1516691083.88,9647,3.31,72758.3,-11.83,-21.53,-21.67,0,*50
1516691085.14,9648,3.25,72756.0,-11.81,-21.57,-21.73,0,*5C
1516691086.39,9649,3.31,72762.0,-11.83,-21.53,-21.77,0,*5F
1516691087.6,9650,3.31,72764.3,-11.83,-21.63,-21.77,0,*54
1516691088.81,9651,3.31,72766.0,-11.83,-21.63,-21.77,0,*55
1516691090.09,9652,3.31,72764.0,-11.83,-21.53,-21.67,0,*54
1516691091.33,9653,3.31,72764.8,-11.83,-21.53,-21.63,0,*51
1516691092.54,9654,3.25,72760.3,-11.83,-21.63,-21.77,0,*50
1516691093.81,9655,3.31,72762.3,-11.81,-21.73,-21.87,0,*5D
1516691095.07,9656,3.31,72760.0,-11.81,-21.43,-21.57,0,*50
1516691096.3,9657,3.31,72760.3,-11.81,-21.43,-21.47,0,*50
1516691097.56,9658,3.31,72764.3,-11.81,-21.43,-21.57,0,*5E
1516691098.8,9659,3.31,72760.3,-11.81,-21.47,-21.47,0,*5A
1516691100.04,9660,3.31,72764.0,-11.79,-21.33,-21.43,0,*50
1516691101.27,9661,3.31,72766.8,-11.81,-21.47,-21.63,0,*57
1516691102.54,9662,3.31,72760.3,-11.81,-21.27,-21.47,0,*54
1516691103.82,9663,3.31,72762.5,-11.81,-21.33,-21.57,0,*51
1516691105.06,9664,3.31,72762.5,-11.81,-21.43,-21.63,0,*56
1516691106.34,9665,3.31,72758.8,-11.81,-21.27,-21.57,0,*52
1516691107.61,9666,3.31,72760.5,-11.81,-21.23,-21.47,0,*54
1516691108.88,9667,3.31,72766.5,-11.81,-21.27,-21.47,0,*51
1516691110.09,9668,3.31,72768.0,-11.79,-21.13,-21.43,0,*5A
1516691111.35,9669,3.31,72766.8,-11.81,-21.23,-21.47,0,*5B
1516691112.61,9670,3.31,72762.5,-11.81,-21.33,-21.73,0,*55
1516691113.85,9671,3.31,72760.5,-11.81,-21.47,-21.77,0,*53
1516691115.09,9672,3.31,72764.5,-11.79,-21.27,-21.63,0,*54
1516691116.32,9673,3.31,72760.8,-11.79,-21.13,-21.57,0,*55
1516691117.56,9674,3.31,72760.8,-11.79,-20.99,-21.47,0,*50
1516691118.77,9675,3.31,72768.5,-11.79,-21.09,-21.47,0,*59
1516691120.01,9676,3.31,72766.3,-11.79,-21.23,-21.63,0,*54
1516691121.26,9677,3.31,72766.3,-11.81,-21.09,-21.57,0,*5D
1516691122.5,9678,3.31,72766.3,-11.81,-21.09,-21.63,0,*55
1516691123.76,9679,3.31,72770.0,-11.79,-20.99,-21.57,0,*5C
1516691125.0,9680,3.31,72770.3,-11.79,-20.83,-21.47,0,*50
1516691126.23,9681,3.31,72774.0,-11.75,-20.89,-21.53,0,*52
1516691127.45,9682,3.31,72772.5,-11.79,-21.09,-21.77,0,*52
1516691128.69,9683,3.31,72768.0,-11.79,-21.13,-21.87,0,*57
1516691129.93,9684,3.31,72764.5,-11.79,-21.13,-21.87,0,*50
1516691131.17,9685,3.31,72762.3,-11.81,-20.93,-21.77,0,*50
1516691132.39,9686,3.31,72762.5,-11.75,-20.79,-21.73,0,*58
1516691133.61,9687,3.31,72762.0,-11.79,-20.93,-21.77,0,*55
1516691134.85,9688,3.25,72760.5,-11.79,-20.99,-21.93,0,*5A
1516691136.09,9689,3.31,72766.5,-11.79,-20.93,-21.87,0,*54
1516691137.3,9690,3.31,72766.3,-11.79,-21.09,-21.93,0,*5B
1516691138.54,9691,3.31,72764.3,-11.79,-20.99,-22.03,0,*58
1516691139.8,9692,3.31,72768.3,-11.79,-21.23,-22.21,0,*5B
1516691141.01,9693,3.31,72764.5,-11.79,-21.09,-22.27,0,*54
1516691142.25,9694,3.31,72762.5,-11.79,-21.09,-22.17,0,*50
1516691143.49,9695,3.31,72770.3,-11.79,-21.09,-22.17,0,*51
1516691144.76,9696,3.31,72766.5,-11.79,-20.99,-22.17,0,*5A
1516691145.99,9697,3.31,72764.3,-11.75,-21.03,-22.11,0,*53
1516691147.2,9698,3.31,72766.0,-11.75,-21.17,-22.37,0,*5D
1516691148.43,9699,3.31,72766.3,-11.75,-21.09,-22.31,0,*55
1516691149.7,9700,3.31,72764.5,-11.75,-21.03,-22.31,0,*5E
1516691150.96,9701,3.25,72762.5,-11.73,-21.27,-22.63,0,*58
1516691152.17,9702,3.31,72760.5,-11.75,-21.17,-22.53,0,*5D
1516691153.38,9703,3.31,72766.3,-11.75,-21.39,-22.63,0,*53
1516691154.62,9704,3.31,72764.5,-11.75,-21.39,-22.77,0,*51
1516691155.88,9705,3.31,72766.3,-11.75,-21.27,-22.77,0,*5F
1516691157.09,9706,3.31,72764.8,-11.75,-21.39,-22.97,0,*5D
1516691158.33,9707,3.31,72764.3,-11.79,-21.27,-22.87,0,*5E
1516691159.59,9708,3.31,72764.0,-11.75,-21.57,-23.33,0,*54
1516691160.83,9709,3.31,72764.5,-11.75,-21.67,-23.43,0,*51
1516691162.1,9710,3.31,72766.3,-11.75,-21.53,-23.23,0,*58
1516691163.31,9711,3.31,72762.3,-11.75,-21.43,-23.13,0,*5B
1516691164.54,9712,3.31,72764.0,-11.75,-21.43,-23.33,0,*5A
1516691165.78,9713,3.25,72760.5,-11.75,-21.57,-23.43,0,*59
1516691167.04,9714,3.31,72766.5,-11.75,-21.53,-23.49,0,*50
1516691168.28,9715,3.31,72766.0,-11.75,-21.83,-23.75,0,*53
1516691169.52,9716,3.31,72764.5,-11.75,-21.87,-23.75,0,*54
1516691170.75,9717,3.31,72766.8,-11.75,-21.87,-23.89,0,*56
1516691172.01,9718,3.31,72764.8,-11.75,-22.31,-24.21,0,*52
1516691173.22,9719,3.31,72764.8,-11.75,-22.11,-24.05,0,*57
1516691174.48,9720,3.31,72766.5,-11.75,-22.17,-24.11,0,*5E
1516691175.75,9721,3.31,72760.0,-11.75,-22.21,-24.21,0,*59
1516691177.01,9722,3.31,72760.8,-11.75,-22.47,-24.41,0,*5C
1516691178.27,9723,3.31,72762.8,-11.75,-22.47,-24.41,0,*5D
1516691179.48,9724,3.31,72764.5,-11.75,-22.53,-24.57,0,*58
1516691180.69,9725,3.31,72764.3,-11.75,-22.53,-24.57,0,*59
1516691181.91,9726,3.31,72766.0,-11.75,-22.53,-24.57,0,*5A
1516691183.16,9727,3.31,72760.8,-11.79,-22.73,-24.67,0,*56
1516691184.4,9728,3.31,72760.0,-11.75,-22.77,-24.77,0,*50
1516691185.64,9729,3.31,72762.3,-11.75,-22.67,-24.71,0,*56
1516691186.88,9730,3.31,72764.3,-11.73,-22.93,-24.77,0,*55
1516691188.14,9731,3.31,72764.8,-11.73,-22.97,-24.87,0,*5F
1516691189.38,9732,3.31,72766.8,-11.75,-23.09,-25.03,0,*51
1516691190.61,9733,3.31,72766.3,-11.75,-23.13,-25.03,0,*5B
1516691191.85,9734,3.31,72764.8,-11.75,-23.29,-25.23,0,*57
1516691193.09,9735,3.31,72764.3,-11.73,-23.43,-25.39,0,*57
1516691194.33,9736,3.31,72764.3,-11.75,-23.59,-25.55,0,*53
1516691195.55,9737,3.31,72760.5,-11.75,-23.59,-25.61,0,*55
1516691196.8,9738,3.31,72764.0,-11.75,-23.75,-25.71,0,*55
1516691198.04,9739,3.31,72760.8,-11.75,-23.65,-25.61,0,*54
1516691199.28,9740,3.31,72766.8,-11.75,-23.79,-25.71,0,*56
1516691200.49,9741,3.31,72764.5,-11.75,-23.89,-25.87,0,*51
1516691201.7,9742,3.31,72764.5,-11.75,-24.05,-25.91,0,*56
1516691202.96,9743,3.31,72764.0,-11.75,-24.11,-26.17,0,*5F
1516691204.26,9744,3.31,72766.5,-11.73,-24.25,-26.17,0,*59
1516691205.53,9745,3.31,72770.0,-11.75,-24.25,-26.33,0,*58
1516691206.8,9746,3.31,72764.8,-11.75,-24.41,-26.33,0,*59
1516691208.01,9747,3.31,72768.0,-11.79,-24.47,-26.61,0,*55
1516691209.25,9748,3.31,72766.3,-11.79,-24.67,-26.65,0,*5C
1516691210.5,9749,3.31,72768.3,-11.79,-24.77,-26.81,0,*56
1516691211.74,9750,3.31,72766.8,-11.79,-24.77,-26.81,0,*5E
1516691212.99,9751,3.31,72764.3,-11.75,-24.87,-26.93,0,*5F
1516691214.2,9752,3.31,72766.8,-11.79,-25.09,-27.13,0,*5E
1516691215.44,9753,3.31,72764.5,-11.79,-25.09,-27.23,0,*5C
1516691216.67,9754,3.31,72764.0,-11.79,-25.09,-27.23,0,*5B
1516691217.91,9755,3.31,72766.5,-11.75,-25.35,-27.61,0,*5F
1516691219.13,9756,3.31,72766.8,-11.79,-25.45,-27.77,0,*50
1516691220.36,9757,3.31,72766.3,-11.79,-25.45,-27.77,0,*51
1516691221.62,9758,3.31,72764.5,-11.79,-25.45,-27.83,0,*55
1516691222.86,9759,3.31,72766.8,-11.79,-25.49,-27.99,0,*53
1516691224.11,9760,3.31,72764.8,-11.79,-25.49,-27.99,0,*59
1516691225.32,9761,3.31,72766.0,-11.79,-25.65,-28.15,0,*5D
1516691226.56,9762,3.31,72766.5,-11.79,-25.91,-28.59,0,*5D
1516691227.83,9763,3.31,72764.3,-11.79,-25.97,-28.63,0,*53
1516691229.09,9764,3.31,72764.3,-11.81,-26.07,-28.79,0,*52
1516691230.32,9765,3.31,72766.3,-11.79,-26.29,-28.97,0,*58
1516691231.55,9766,3.31,72766.0,-11.79,-26.39,-29.13,0,*57
1516691232.78,9767,3.31,72766.0,-11.75,-26.39,-29.13,0,*5A
1516691234.05,9768,3.31,72766.5,-11.81,-26.61,-29.51,0,*55
1516691235.32,9769,3.31,72768.8,-11.81,-26.81,-29.67,0,*5F
1516691236.56,9770,3.31,72764.8,-11.79,-26.93,-29.67,0,*53
1516691237.81,9771,3.31,72766.3,-11.79,-26.97,-29.83,0,*5C
1516691239.09,9772,3.31,72766.3,-11.81,-27.23,-30.05,0,*50
1516691240.35,9773,3.31,72764.0,-11.79,-27.39,-30.39,0,*52
1516691241.65,9774,3.31,72766.3,-11.81,-27.45,-30.55,0,*53
1516691242.92,9775,3.31,72770.5,-11.81,-27.67,-30.73,0,*56
1516691244.21,9776,3.31,72764.0,-11.81,-27.83,-30.89,0,*5A
1516691245.48,9777,3.31,72768.0,-11.81,-27.93,-30.89,0,*5A
1516691246.72,9778,3.31,72768.5,-11.81,-28.15,-31.05,0,*51
1516691248.01,9779,3.31,72768.0,-11.81,-28.43,-31.39,0,*5C
1516691249.28,9780,3.31,72768.8,-11.81,-28.47,-31.45,0,*55
1516691250.52,9781,3.31,72770.8,-11.81,-28.85,-31.79,0,*55
1516691251.76,9782,3.31,72766.3,-11.83,-29.01,-31.79,0,*59
1516691253.03,9783,3.31,72768.8,-11.83,-29.17,-31.95,0,*5D
1516691254.29,9784,3.31,72768.0,-11.85,-29.23,-32.07,0,*53
1516691255.51,9785,3.31,72766.3,-11.83,-29.57,-32.23,0,*51
1516691256.72,9786,3.31,72764.3,-11.83,-29.79,-32.35,0,*59
1516691257.94,9787,3.31,72764.8,-11.83,-29.79,-32.51,0,*5A
1516691259.15,9788,3.31,72764.5,-11.83,-30.11,-32.57,0,*55
1516691260.43,9789,3.31,72766.0,-11.85,-30.55,-32.85,0,*5D
1516691261.69,9790,3.31,72768.8,-11.85,-30.61,-33.03,0,*5D
1516691262.93,9791,3.31,72768.0,-11.83,-30.73,-33.03,0,*59
1516691264.2,9792,3.31,72768.8,-11.85,-30.95,-32.91,0,*5E
1516691265.48,9793,3.31,72770.0,-11.85,-30.95,-33.09,0,*5F
1516691266.75,9794,3.31,72764.8,-11.85,-31.33,-33.27,0,*59
1516691268.04,9795,3.31,72764.3,-11.85,-31.51,-33.43,0,*5E
1516691269.31,9796,3.31,72766.8,-11.87,-31.57,-33.31,0,*5C
1516691270.56,9797,3.31,72764.5,-11.87,-31.85,-33.37,0,*54
1516691271.82,9798,3.31,72766.3,-11.85,-31.79,-33.43,0,*59
1516691273.06,9799,3.31,72766.5,-11.89,-32.13,-33.67,0,*5D
1516691274.33,9800,3.31,72768.0,-11.89,-32.01,-33.49,0,*5D
1516691275.59,9801,3.31,72766.8,-11.89,-32.07,-33.37,0,*53
1516691276.81,9802,3.31,72764.3,-11.87,-32.39,-33.67,0,*56
1516691278.07,9803,3.31,72768.8,-11.89,-32.29,-33.55,0,*59
1516691279.33,9804,3.31,72768.8,-11.89,-32.45,-33.67,0,*55
1516691280.57,9805,3.31,72766.8,-11.89,-32.57,-33.67,0,*57
1516691281.85,9806,3.31,72764.8,-11.89,-32.63,-33.73,0,*56
1516691283.14,9807,3.31,72764.8,-11.89,-32.79,-33.89,0,*59
1516691284.4,9808,3.31,72762.5,-11.91,-32.85,-33.77,0,*5D
1516691285.67,9809,3.31,72764.5,-11.91,-32.85,-33.73,0,*58
1516691286.93,9810,3.31,72768.0,-11.91,-32.85,-33.89,0,*55
1516691288.19,9811,3.31,72768.5,-11.91,-32.85,-33.89,0,*54
1516691289.43,9812,3.31,72766.8,-11.91,-32.97,-33.95,0,*59
1516691290.64,9813,3.31,72768.5,-11.95,-33.21,-34.13,0,*59
1516691291.85,9814,3.31,72764.0,-11.95,-33.37,-34.25,0,*5C
1516691293.05,9815,3.31,72766.5,-11.95,-33.15,-33.95,0,*51
1516691294.26,9816,3.31,72766.3,-11.95,-33.15,-33.95,0,*52
1516691295.51,9817,3.31,72766.0,-11.95,-33.43,-34.31,0,*59
1516691296.75,9818,3.31,72766.3,-11.95,-33.27,-34.13,0,*54
1516691298.01,9819,3.31,72766.8,-11.97,-33.31,-34.13,0,*50
1516691299.26,9820,3.31,72766.0,-11.99,-33.43,-34.19,0,*5B
1516691300.52,9821,3.31,72766.5,-11.99,-33.31,-34.19,0,*5F
1516691301.8,9822,3.31,72762.3,-11.97,-33.31,-34.19,0,*52
1516691303.08,9823,3.31,72762.0,-11.97,-33.31,-34.31,0,*59
1516691304.36,9824,3.31,72764.8,-11.97,-33.43,-34.31,0,*5B
1516691305.64,9825,3.31,72764.5,-11.97,-33.31,-34.31,0,*5F